Time,TemperatureF,DewpointF,PressureIn,WindDirection,WindDirectionDegrees,WindSpeedMPH,WindSpeedGustMPH,Humidity,HourlyPrecipIn,Conditions,Clouds,dailyrainin,SoftwareType,DateUTC
2013-04-15 00:02:00,29.0,28.0,29.59,NNW,342,17.0,26.0,97,0.00,,,0.00,,2013-04-15 05:02:00,
2013-04-15 00:12:00,29.0,28.0,29.59,NNW,342,17.0,26.0,97,0.00,,,0.00,,2013-04-15 05:12:00,
2013-04-15 00:23:00,29.0,28.0,29.60,North,360,18.0,29.0,97,0.00,,,0.00,,2013-04-15 05:23:00,
2013-04-15 00:33:00,29.0,28.0,29.60,NNE,22,16.0,28.0,97,0.00,,,0.00,,2013-04-15 05:33:00,
2013-04-15 00:42:00,29.0,28.0,29.60,NNE,22,16.0,28.0,97,0.00,,,0.00,,2013-04-15 05:42:00,
2013-04-15 00:53:00,29.0,28.0,29.60,North,360,13.0,23.0,97,0.00,,,0.00,,2013-04-15 05:53:00,
2013-04-15 01:02:00,29.0,28.0,29.60,NNW,348,14.0,22.0,97,0.00,,,0.00,,2013-04-15 06:02:00,
2013-04-15 01:12:00,29.0,28.0,29.60,NNW,348,14.0,22.0,97,0.00,,,0.00,,2013-04-15 06:12:00,
2013-04-15 01:22:00,29.0,28.0,29.60,NNE,20,15.0,21.0,97,0.00,,,0.00,,2013-04-15 06:22:00,
2013-04-15 01:33:00,29.0,28.0,29.60,North,9,15.0,23.0,97,0.00,,,0.00,,2013-04-15 06:33:00,
2013-04-15 01:42:00,29.0,28.0,29.60,North,9,15.0,23.0,97,0.00,,,0.00,,2013-04-15 06:42:00,
2013-04-15 01:52:00,29.0,28.0,29.60,NNE,13,13.0,22.0,97,0.00,,,0.00,,2013-04-15 06:52:00,
2013-04-15 02:02:00,29.0,28.0,29.61,NNE,24,14.0,23.0,97,0.00,,,0.00,,2013-04-15 07:02:00,
2013-04-15 02:41:00,29.0,28.0,29.61,North,10,13.0,24.0,97,0.00,,,0.00,,2013-04-15 07:41:00,
2013-04-15 02:42:00,29.0,28.0,29.61,North,360,13.0,21.0,97,0.00,,,0.00,,2013-04-15 07:42:00,
2013-04-15 02:53:00,29.0,28.0,29.62,NE,36,13.0,21.0,97,0.00,,,0.00,,2013-04-15 07:53:00,
2013-04-15 03:02:00,29.0,28.0,29.62,North,5,13.0,23.0,97,0.00,,,0.00,,2013-04-15 08:02:00,
2013-04-15 03:13:00,29.0,28.0,29.62,North,5,13.0,23.0,97,0.00,,,0.00,,2013-04-15 08:13:00,
2013-04-15 03:22:00,28.0,27.0,29.61,NNW,336,15.0,22.0,97,0.00,,,0.00,,2013-04-15 08:22:00,
2013-04-15 03:33:00,28.0,27.0,29.61,NNE,19,13.0,21.0,97,0.00,,,0.00,,2013-04-15 08:33:00,
2013-04-15 03:42:00,28.0,27.0,29.61,NNE,19,13.0,21.0,97,0.00,,,0.00,,2013-04-15 08:42:00,
2013-04-15 03:52:00,28.0,27.0,29.62,NNE,26,11.0,20.0,97,0.00,,,0.00,,2013-04-15 08:52:00,
2013-04-15 04:02:00,28.0,27.0,29.62,North,5,12.0,19.0,97,0.00,,,0.00,,2013-04-15 09:02:00,
2013-04-15 04:12:00,28.0,27.0,29.62,North,5,12.0,19.0,97,0.00,,,0.00,,2013-04-15 09:12:00,
2013-04-15 04:23:00,28.0,27.0,29.63,North,355,13.0,22.0,97,0.00,,,0.00,,2013-04-15 09:23:00,
2013-04-15 04:32:00,28.0,27.0,29.63,North,351,15.0,23.0,97,0.00,,,0.00,,2013-04-15 09:32:00,
2013-04-15 04:42:00,28.0,27.0,29.63,North,351,15.0,23.0,97,0.00,,,0.00,,2013-04-15 09:42:00,
2013-04-15 04:53:00,28.0,27.0,29.64,NNW,336,13.0,21.0,97,0.00,,,0.00,,2013-04-15 09:53:00,
2013-04-15 05:02:00,28.0,27.0,29.64,North,5,15.0,23.0,97,0.00,,,0.00,,2013-04-15 10:02:00,
2013-04-15 05:13:00,28.0,27.0,29.64,North,5,15.0,23.0,97,0.00,,,0.00,,2013-04-15 10:13:00,
2013-04-15 05:23:00,28.0,27.0,29.64,North,9,12.0,22.0,97,0.00,,,0.00,,2013-04-15 10:23:00,
2013-04-15 05:33:00,28.0,27.0,29.65,NNW,348,15.0,19.0,97,0.00,,,0.00,,2013-04-15 10:33:00,
2013-04-15 05:42:00,28.0,27.0,29.65,NNW,348,15.0,19.0,97,0.00,,,0.00,,2013-04-15 10:42:00,
2013-04-15 05:53:00,28.0,27.0,29.65,North,5,13.0,20.0,97,0.00,,,0.00,,2013-04-15 10:53:00,
2013-04-15 06:03:00,28.0,27.0,29.65,NNW,342,12.0,22.0,97,0.00,,,0.00,,2013-04-15 11:03:00,
2013-04-15 06:12:00,28.0,27.0,29.65,NNW,342,12.0,22.0,97,0.00,,,0.00,,2013-04-15 11:12:00,
2013-04-15 06:22:00,28.0,27.0,29.65,NNE,12,14.0,22.0,97,0.00,,,0.00,,2013-04-15 11:22:00,
2013-04-15 06:32:00,28.0,27.0,29.66,NNW,328,16.0,24.0,97,0.00,,,0.00,,2013-04-15 11:32:00,
2013-04-15 06:43:00,28.0,27.0,29.66,NNW,328,16.0,24.0,97,0.00,,,0.00,,2013-04-15 11:43:00,
2013-04-15 06:53:00,28.0,27.0,29.67,NNW,338,13.0,25.0,97,0.00,,,0.00,,2013-04-15 11:53:00,
2013-04-15 07:04:00,28.0,27.0,29.67,North,355,13.0,21.0,97,0.00,,,0.00,,2013-04-15 12:04:00,
2013-04-15 07:14:00,28.0,27.0,29.67,North,355,13.0,21.0,97,0.00,,,0.00,,2013-04-15 12:14:00,
2013-04-15 07:23:00,28.0,27.0,29.68,NNW,340,11.0,18.0,97,0.00,,,0.00,,2013-04-15 12:23:00,
2013-04-15 07:33:00,28.0,27.0,29.69,NNW,331,13.0,22.0,97,0.00,,,0.00,,2013-04-15 12:33:00,
2013-04-15 07:43:00,28.0,27.0,29.69,NNW,331,13.0,22.0,97,0.00,,,0.00,,2013-04-15 12:43:00,
2013-04-15 07:53:00,28.0,27.0,29.69,NNW,347,13.0,23.0,97,0.00,,,0.00,,2013-04-15 12:53:00,
2013-04-15 08:04:00,28.0,27.0,29.68,NNW,329,12.0,25.0,97,0.00,,,0.00,,2013-04-15 13:04:00,
2013-04-15 08:12:00,28.0,27.0,29.68,NNW,329,12.0,25.0,97,0.00,,,0.00,,2013-04-15 13:12:00,
2013-04-15 08:23:00,28.0,27.0,29.68,NNW,346,12.0,20.0,97,0.00,,,0.00,,2013-04-15 13:23:00,
2013-04-15 08:33:00,28.0,27.0,29.69,NNW,331,13.0,20.0,97,0.00,,,0.00,,2013-04-15 13:33:00,
2013-04-15 08:43:00,28.0,27.0,29.69,NNW,331,13.0,20.0,97,0.00,,,0.00,,2013-04-15 13:43:00,
2013-04-15 08:54:00,28.0,27.0,29.69,NNE,14,12.0,18.0,97,0.00,,,0.00,,2013-04-15 13:54:00,
2013-04-15 09:05:00,28.0,27.0,29.70,North,360,10.0,19.0,97,0.00,,,0.00,,2013-04-15 14:05:00,
2013-04-15 09:13:00,28.0,27.0,29.70,North,360,10.0,19.0,97,0.00,,,0.00,,2013-04-15 14:13:00,
2013-04-15 09:22:00,28.0,27.0,29.72,North,355,11.0,17.0,97,0.00,,,0.00,,2013-04-15 14:22:00,
2013-04-15 09:33:00,29.0,28.0,29.71,North,5,10.0,20.0,97,0.00,,,0.00,,2013-04-15 14:33:00,
2013-04-15 09:44:00,29.0,28.0,29.71,North,5,10.0,20.0,97,0.00,,,0.00,,2013-04-15 14:44:00,
2013-04-15 09:55:00,29.0,28.0,29.72,NNW,327,10.0,19.0,97,0.00,,,0.00,,2013-04-15 14:55:00,
2013-04-15 10:03:00,29.0,28.0,29.72,NNW,344,9.0,18.0,97,0.00,,,0.00,,2013-04-15 15:03:00,
2013-04-15 10:13:00,29.0,28.0,29.72,NNW,344,9.0,18.0,97,0.00,,,0.00,,2013-04-15 15:13:00,
2013-04-15 10:23:00,30.0,29.0,29.72,NW,311,12.0,17.0,97,0.00,,,0.00,,2013-04-15 15:23:00,
2013-04-15 10:35:00,30.0,29.0,29.74,NNW,340,8.0,22.0,97,0.00,,,0.00,,2013-04-15 15:35:00,
2013-04-15 10:43:00,30.0,29.0,29.74,NNW,340,8.0,22.0,97,0.00,,,0.00,,2013-04-15 15:43:00,
2013-04-15 10:55:00,30.0,29.0,29.74,North,350,9.0,19.0,97,0.00,,,0.00,,2013-04-15 15:55:00,
2013-04-15 11:13:00,30.0,29.0,29.75,North,355,13.0,21.0,97,0.00,,,0.00,,2013-04-15 16:13:00,
2013-04-15 11:24:00,30.0,29.0,29.76,NNW,338,10.0,19.0,97,0.00,,,0.00,,2013-04-15 16:24:00,
2013-04-15 11:44:00,30.0,29.0,29.77,North,350,11.0,19.0,97,0.00,,,0.00,,2013-04-15 16:44:00,
2013-04-15 11:54:00,31.0,30.0,29.78,NNW,339,8.0,15.0,97,0.00,,,0.00,,2013-04-15 16:54:00,
2013-04-15 12:03:00,31.0,30.0,29.79,NNE,13,10.0,18.0,97,0.00,,,0.00,,2013-04-15 17:03:00,
2013-04-15 12:14:00,31.0,30.0,29.79,NNE,13,10.0,18.0,97,0.00,,,0.00,,2013-04-15 17:14:00,
2013-04-15 12:22:00,31.0,30.0,29.79,NNW,344,8.0,16.0,97,0.00,,,0.00,,2013-04-15 17:22:00,
2013-04-15 12:33:00,31.0,30.0,29.80,NNW,341,10.0,19.0,97,0.00,,,0.00,,2013-04-15 17:33:00,
2013-04-15 12:43:00,31.0,30.0,29.80,NNW,341,10.0,19.0,97,0.00,,,0.00,,2013-04-15 17:43:00,
2013-04-15 12:52:00,31.0,31.0,29.80,NNW,342,10.0,17.0,98,0.00,,,0.00,,2013-04-15 17:52:00,
2013-04-15 13:12:00,31.0,31.0,29.81,NW,313,9.0,16.0,98,0.00,,,0.00,,2013-04-15 18:12:00,
2013-04-15 13:23:00,31.0,31.0,29.82,North,11,10.0,17.0,98,0.00,,,0.00,,2013-04-15 18:23:00,
2013-04-15 13:32:00,31.0,31.0,29.82,North,360,11.0,20.0,98,0.00,,,0.00,,2013-04-15 18:32:00,
2013-04-15 13:42:00,31.0,31.0,29.82,North,360,11.0,20.0,98,0.00,,,0.00,,2013-04-15 18:42:00,
2013-04-15 13:52:00,31.0,31.0,29.82,NNW,337,9.0,18.0,98,0.00,,,0.00,,2013-04-15 18:52:00,
2013-04-15 14:02:00,31.0,31.0,29.83,NNW,336,12.0,18.0,98,0.00,,,0.00,,2013-04-15 19:02:00,
2013-04-15 14:12:00,31.0,31.0,29.83,NNW,336,12.0,18.0,98,0.00,,,0.00,,2013-04-15 19:12:00,
2013-04-15 14:22:00,31.0,31.0,29.83,NNW,329,11.0,18.0,98,0.01,,,0.01,,2013-04-15 19:22:00,
2013-04-15 14:36:00,32.0,32.0,29.83,NNW,327,12.0,18.0,98,0.01,,,0.01,,2013-04-15 19:36:00,
2013-04-15 15:01:00,32.0,32.0,29.84,NNE,20,11.0,20.0,98,0.01,,,0.01,,2013-04-15 20:01:00,
2013-04-15 15:11:00,31.0,31.0,29.85,NW,304,10.0,22.0,98,0.01,,,0.01,,2013-04-15 20:11:00,
2013-04-15 15:22:00,32.0,32.0,29.86,NNW,327,10.0,18.0,98,0.00,,,0.01,,2013-04-15 20:22:00,
2013-04-15 15:32:00,32.0,32.0,29.86,NW,308,9.0,19.0,98,0.00,,,0.01,,2013-04-15 20:32:00,
2013-04-15 15:42:00,32.0,32.0,29.86,NW,308,9.0,19.0,98,0.00,,,0.01,,2013-04-15 20:42:00,
2013-04-15 15:52:00,32.0,32.0,29.85,NNW,342,11.0,20.0,98,0.00,,,0.01,,2013-04-15 20:52:00,
2013-04-15 16:02:00,32.0,32.0,29.86,North,5,8.0,18.0,98,0.00,,,0.01,,2013-04-15 21:02:00,
2013-04-15 16:12:00,32.0,32.0,29.86,North,5,8.0,18.0,98,0.00,,,0.01,,2013-04-15 21:12:00,
2013-04-15 16:22:00,32.0,32.0,29.86,NNW,335,14.0,21.0,98,0.00,,,0.01,,2013-04-15 21:22:00,
2013-04-15 16:32:00,31.0,31.0,29.86,NNW,327,11.0,20.0,98,0.00,,,0.01,,2013-04-15 21:32:00,
2013-04-15 16:43:00,31.0,31.0,29.86,NNW,327,11.0,20.0,98,0.00,,,0.01,,2013-04-15 21:43:00,
2013-04-15 16:53:00,31.0,31.0,29.86,NW,315,13.0,20.0,98,0.00,,,0.01,,2013-04-15 21:53:00,
2013-04-15 17:02:00,31.0,31.0,29.86,NNW,334,11.0,19.0,98,0.00,,,0.01,,2013-04-15 22:02:00,
2013-04-15 17:13:00,31.0,31.0,29.86,NNW,334,11.0,19.0,98,0.00,,,0.01,,2013-04-15 22:13:00,
2013-04-15 17:23:00,31.0,31.0,29.86,NNW,347,14.0,23.0,98,0.00,,,0.01,,2013-04-15 22:23:00,
2013-04-15 17:33:00,31.0,31.0,29.87,NNW,342,14.0,19.0,98,0.00,,,0.01,,2013-04-15 22:33:00,
2013-04-15 17:42:00,31.0,31.0,29.87,NNW,342,14.0,19.0,98,0.00,,,0.01,,2013-04-15 22:42:00,
2013-04-15 17:52:00,31.0,31.0,29.88,NNW,335,11.0,18.0,98,0.00,,,0.01,,2013-04-15 22:52:00,
2013-04-15 18:02:00,30.0,29.0,29.88,NNW,330,11.0,20.0,98,0.00,,,0.01,,2013-04-15 23:02:00,
2013-04-15 18:12:00,30.0,29.0,29.88,NNW,330,11.0,20.0,98,0.00,,,0.01,,2013-04-15 23:12:00,
2013-04-15 18:22:00,30.0,29.0,29.89,North,355,8.0,19.0,98,0.00,,,0.01,,2013-04-15 23:22:00,
2013-04-15 18:32:00,30.0,29.0,29.91,WNW,302,10.0,18.0,98,0.00,,,0.01,,2013-04-15 23:32:00,
2013-04-15 18:42:00,30.0,29.0,29.91,WNW,302,10.0,18.0,98,0.00,,,0.01,,2013-04-15 23:42:00,
2013-04-15 18:52:00,30.0,29.0,29.91,North,355,9.0,18.0,98,0.00,,,0.01,,2013-04-15 23:52:00,
2013-04-15 19:02:00,30.0,29.0,29.91,NNW,345,9.0,18.0,98,0.00,,,0.01,,2013-04-16 00:02:00,
2013-04-15 19:12:00,30.0,29.0,29.91,NNW,345,9.0,18.0,98,0.00,,,0.01,,2013-04-16 00:12:00,
2013-04-15 19:22:00,30.0,29.0,29.93,NNW,345,11.0,18.0,98,0.00,,,0.01,,2013-04-16 00:22:00,
2013-04-15 19:32:00,29.0,29.0,29.94,North,349,7.0,20.0,98,0.00,,,0.01,,2013-04-16 00:32:00,
2013-04-15 19:42:00,29.0,29.0,29.94,North,349,7.0,20.0,98,0.00,,,0.01,,2013-04-16 00:42:00,
2013-04-15 19:52:00,29.0,29.0,29.95,North,360,9.0,16.0,98,0.00,,,0.01,,2013-04-16 00:52:00,
2013-04-15 20:02:00,29.0,29.0,29.95,North,355,10.0,16.0,98,0.00,,,0.01,,2013-04-16 01:02:00,
2013-04-15 20:12:00,29.0,29.0,29.95,North,355,10.0,16.0,98,0.00,,,0.01,,2013-04-16 01:12:00,
2013-04-15 20:22:00,29.0,28.0,29.96,North,5,9.0,15.0,97,0.00,,,0.01,,2013-04-16 01:22:00,
2013-04-15 20:32:00,29.0,28.0,29.96,NNW,346,6.0,15.0,97,0.00,,,0.01,,2013-04-16 01:32:00,
2013-04-15 20:42:00,29.0,28.0,29.96,NNW,346,6.0,15.0,97,0.00,,,0.01,,2013-04-16 01:42:00,
2013-04-15 20:52:00,29.0,28.0,29.97,North,9,5.0,10.0,97,0.00,,,0.01,,2013-04-16 01:52:00,
2013-04-15 21:02:00,29.0,28.0,29.98,NNW,342,5.0,11.0,97,0.00,,,0.01,,2013-04-16 02:02:00,
2013-04-15 21:12:00,29.0,28.0,29.98,NNW,342,5.0,11.0,97,0.00,,,0.01,,2013-04-16 02:12:00,
2013-04-15 21:22:00,29.0,28.0,29.99,NNE,15,4.0,7.0,97,0.00,,,0.01,,2013-04-16 02:22:00,
2013-04-15 21:32:00,29.0,28.0,29.99,North,5,6.0,12.0,97,0.00,,,0.01,,2013-04-16 02:32:00,
2013-04-15 21:42:00,29.0,28.0,29.99,North,5,6.0,12.0,97,0.00,,,0.01,,2013-04-16 02:42:00,
2013-04-15 21:52:00,29.0,28.0,30.01,NNE,14,5.0,8.0,97,0.00,,,0.01,,2013-04-16 02:52:00,
2013-04-15 22:02:00,28.0,27.0,30.01,NNE,17,5.0,8.0,97,0.00,,,0.01,,2013-04-16 03:02:00,
2013-04-15 22:12:00,28.0,27.0,30.01,NNE,17,5.0,8.0,97,0.00,,,0.01,,2013-04-16 03:12:00,
2013-04-15 22:22:00,28.0,27.0,30.02,North,5,3.0,6.0,97,0.00,,,0.01,,2013-04-16 03:22:00,
2013-04-15 22:33:00,28.0,27.0,30.03,NNW,327,2.0,6.0,97,0.00,,,0.01,,2013-04-16 03:33:00,
2013-04-15 22:43:00,28.0,27.0,30.03,NNW,327,2.0,6.0,97,0.00,,,0.01,,2013-04-16 03:43:00,
2013-04-15 22:53:00,28.0,27.0,30.03,NNW,348,3.0,6.0,97,0.00,,,0.01,,2013-04-16 03:53:00,
2013-04-15 23:03:00,28.0,27.0,30.03,NNW,346,3.0,5.0,97,0.00,,,0.01,,2013-04-16 04:03:00,
2013-04-15 23:12:00,28.0,27.0,30.03,NNW,346,3.0,5.0,97,0.00,,,0.01,,2013-04-16 04:12:00,
2013-04-15 23:23:00,28.0,27.0,30.03,NNW,329,4.0,7.0,97,0.00,,,0.01,,2013-04-16 04:23:00,
2013-04-15 23:33:00,28.0,27.0,30.04,NNW,328,2.0,6.0,97,0.00,,,0.01,,2013-04-16 04:33:00,
2013-04-15 23:42:00,28.0,27.0,30.04,NNW,328,2.0,6.0,97,0.00,,,0.01,,2013-04-16 04:42:00,
2013-04-15 23:53:00,28.0,27.0,30.04,NNW,328,2.0,4.0,97,0.00,,,0.01,,2013-04-16 04:53:00,